Home   Weather   Finse   Past weeks

Flag for Norway Past Weather in Finse, Norway — Yesterday and Last 2 Weeks

Now
31 °F

Chilly.


Feels Like: 19 °F
Forecast: 30 / 36 °F
Wind: 18 mph from Northwest

Location: Finsevatn

Current Time: Jan 18, 2017 at 7:31:23 pm

Latest Report: Jan 18, 2017 at 7:00 pm


Visibility: N/A

Pressure: 30.24 "Hg (25.95 "Hg at 1221m altitude)

Humidity: 92%

Dew Point: 29 °F

Location of FinseLocation

Past Weather in Finse — Graph

°F

Finse Temperature Yesterday

Maximum temperature yesterday: 32 °F (at 11:00 pm)
Minimum temperature yesterday: 19 °F (at 2:00 am)
Average temperature yesterday: 27 °F

High & Low Weather Summary for the Past Weeks

 TemperatureHumidityPressure
High35 °F (Jan 18, 5:00 am)94% (Jan 17, 11:00 pm)30.82 "Hg (Jan 17, 11:00 pm)
Low-13 °F (Jan 16, 7:00 am)35% (Jan 16, 9:00 pm)28.56 "Hg (Jan 11, 11:00 am)
Average19 °F80%29.85 "Hg
* Reported Jan 3 6:00 pm — Jan 18 6:00 pm, Finse, Weather by CustomWeather, © 2017

Note: Actual official high and low records may vary slightly from our data, if they occured in-between our weather recording intervals... More about our weather records

Advertising

Finse Weather History for the Previous 24 Hours

Scroll right to see more
 ConditionsComfort  
Time TempWeatherWind HumidityBarometerVisibility
6:00 pm
Wed, Jan 18
31 °FChilly.17 mph91%30.26 "HgN/A
5:00 pm32 °FChilly.16 mph90%30.26 "HgN/A
4:00 pm32 °FChilly.15 mph91%30.26 "HgN/A
3:00 pm32 °FChilly.14 mph90%30.26 "HgN/A
2:00 pm33 °FChilly.15 mph91%30.26 "HgN/A
1:00 pm34 °FChilly.16 mph84%30.24 "HgN/A
12:00 pm33 °FChilly.13 mph89%30.28 "HgN/A
11:00 am34 °FChilly.17 mph87%30.24 "HgN/A
10:00 am34 °FChilly.15 mph91%30.24 "HgN/A
9:00 am34 °FChilly.14 mph89%30.25 "HgN/A
8:00 am33 °FChilly.15 mph93%30.26 "HgN/A
7:00 am34 °FChilly.16 mph89%30.25 "HgN/A
6:00 am35 °FChilly.13 mph89%30.25 "HgN/A
5:00 am35 °FChilly.13 mph88%30.27 "HgN/A
4:00 am33 °FChilly.8 mph93%30.32 "HgN/A
3:00 am33 °FChilly.9 mph92%30.34 "HgN/A
2:00 am34 °FChilly.12 mph92%30.33 "HgN/A
1:00 am33 °FChilly.13 mph93%30.34 "HgN/A
12:00 am33 °FChilly.17 mph92%30.32 "HgN/A
11:00 pm
Tue, Jan 17
32 °FChilly.16 mph94%30.31 "HgN/A
10:00 pm32 °FChilly.14 mph93%30.31 "HgN/A
7:00 pm32 °FChilly.9 mph91%30.33 "HgN/A
Weather by CustomWeather, © 2017

See weather overviewHow to use our weather pages